Total_Precipitation_Accumulation
0.00 0.00 0.00 0.01 0.01 0.01 0.01 0.01 0.02 0.05 0.09 0.10 0.15 0.23 0.43 0.66 0.73 0.79 0.94 0.94 0.88 0.77
0.00 0.00 0.00 0.01 0.02 0.03 0.03 0.03 0.04 0.05 0.06 0.08 0.12 0.18 0.23 0.27 0.36 0.53 0.69 0.75 0.85 0.90
0.01 0.01 0.03 0.05 0.06 0.09 0.10 0.09 0.07 0.07 0.07 0.08 0.14 0.22 0.32 0.33 0.28 0.26 0.32 0.48 0.60 0.59
0.04 0.07 0.09 0.08 0.11 0.05 0.03 0.01 0.02 0.05 0.06 0.08 0.10 0.14 0.24 0.33 0.35 0.38 0.33 0.39 0.50 0.52
0.17 0.18 0.12 0.09 0.05 0.00 0.00 0.00 0.01 0.02 0.03 0.05 0.10 0.12 0.14 0.17 0.23 0.26 0.30 0.31 0.45 0.61
0.29 0.13 0.03 0.00 0.00 0.00 0.00 0.00 0.00 0.00 0.02 0.03 0.05 0.08 0.11 0.13 0.15 0.17 0.20 0.24 0.23 0.28
0.08 0.01 0.00 0.00 0.00 0.00 0.00 0.00 0.00 0.00 0.00 0.01 0.04 0.05 0.06 0.10 0.16 0.22 0.20 0.22 0.30 0.29
0.33 0.09 0.01 0.00 0.00 0.00 0.00 0.00 0.00 0.00 0.00 0.00 0.00 0.02 0.05 0.05 0.07 0.10 0.16 0.25 0.25 0.27
0.04 0.01 0.00 0.00 0.00 0.00 0.00 0.00 0.00 0.00 0.00 0.00 0.00 0.01 0.03 0.08 0.11 0.08 0.07 0.08 0.13 0.21
0.02 0.00 0.00 0.00 0.00 0.00 0.00 0.00 0.00 0.00 0.00 0.00 0.00 0.02 0.00 0.04 0.09 0.17 0.22 0.15 0.10 0.09
0.00 0.00 0.00 0.00 0.00 0.01 0.00 0.00 0.00 0.00 0.00 0.00 0.01 0.02 0.00 0.00 0.03 0.12 0.16 0.24 0.20 0.14
0.00 0.00 0.00 0.00 0.00 0.00 0.00 0.00 0.00 0.00 0.00 0.00 0.01 0.02 0.02 0.02 0.01 0.02 0.09 0.17 0.19 0.19
0.00 0.00 0.00 0.00 0.00 0.00 0.01 0.00 0.00 0.00 0.00 0.02 0.02 0.09 0.07 0.07 0.06 0.03 0.02 0.06 0.20 0.27
0.00 0.00 0.00 0.00 0.00 0.00 0.01 0.01 0.00 0.00 0.00 0.01 0.02 0.07 0.08 0.07 0.08 0.06 0.04 0.04 0.06 0.17